EST,Max TemperatureF,Mean TemperatureF,Min TemperatureF,Max Dew PointF,MeanDew PointF,Min DewpointF,Max Humidity, Mean Humidity, Min Humidity, Max Sea Level PressureIn, Mean Sea Level PressureIn, Min Sea Level PressureIn, Max VisibilityMiles, Mean VisibilityMiles, Min VisibilityMiles, Max Wind SpeedMPH, Mean Wind SpeedMPH, Max Gust SpeedMPH,PrecipitationIn, CloudCover, Events, WindDirDegrees
2013-11-1,72,58,44,59,49,41,90,73,34,29.70,29.62,29.56,10,9,4,13,6,22,0.13,3,Rain,240
2013-11-2,62,50,39,46,41,38,93,77,48,29.85,29.73,29.66,10,9,4,8,1,,0.01,7,Rain,256
2013-11-3,50,41,30,42,30,20,74,61,36,30.51,30.18,29.86,10,10,10,15,9,20,0.00,4,Rain,360
2013-11-4,44,34,24,28,23,17,89,70,35,30.67,30.61,30.53,10,10,10,6,2,,0.00,0,,328
2013-11-5,55,42,30,39,32,25,93,72,49,30.65,30.58,30.46,10,9,2,10,2,,0.00,4,,292
2013-11-6,64,50,36,50,44,34,93,74,54,30.45,30.25,29.98,10,9,5,10,3,21,0.00,5,,185
2013-11-7,59,50,39,53,45,24,97,78,49,30.04,29.93,29.86,10,8,2,14,5,25,0.45,7,Rain,293
2013-11-8,48,42,35,35,28,23,86,62,41,30.28,30.15,30.05,10,9,2,16,6,23,0.04,5,Rain,285
2013-11-9,52,40,28,30,27,25,89,63,40,30.33,30.17,29.96,10,10,10,12,3,,0.00,2,,200
2013-11-10,54,42,30,36,29,26,92,58,38,30.18,30.01,29.92,10,10,9,17,5,32,0.00,5,,278
2013-11-11,50,39,28,35,30,25,89,63,43,30.25,30.13,29.99,10,10,10,9,4,,0.00,6,,244
2013-11-12,48,36,25,34,22,13,89,63,34,30.39,30.23,30.01,10,8,2,20,11,33,0.04,4,Rain-Snow,333
2013-11-13,41,32,23,21,18,12,88,63,43,30.47,30.40,30.33,10,10,10,14,5,20,0.00,3,,319
2013-11-14,53,37,21,22,18,9,88,62,17,30.30,30.25,30.19,10,10,10,8,2,16,0.00,0,,237
2013-11-15,55,38,21,32,24,19,89,67,27,30.28,30.22,30.17,10,10,10,8,1,,0.00,1,Rain,162
2013-11-16,60,45,30,45,38,28,92,72,42,30.32,30.26,30.21,10,9,5,9,4,,0.00,3,,178
2013-11-17,60,54,48,57,51,47,93,87,80,30.21,30.00,29.62,10,6,2,14,5,21,0.18,8,Rain,180
2013-11-18,61,53,45,57,37,26,90,58,32,29.93,29.73,29.59,10,9,2,26,11,44,0.16,3,Rain,255
2013-11-19,45,34,24,30,24,21,88,60,45,30.44,30.20,29.95,10,10,10,14,9,26,0.00,5,,323
2013-11-20,46,34,21,23,20,18,88,69,34,30.59,30.53,30.43,10,10,10,9,4,,0.00,0,,19
2013-11-21,44,32,19,35,26,16,89,73,51,30.60,30.50,30.36,10,10,10,6,1,,0.00,6,Rain,188
2013-11-22,51,46,41,47,41,35,93,80,66,30.35,30.13,30.01,10,8,3,14,2,23,0.03,8,Rain,211
2013-11-23,43,34,24,31,20,4,70,55,38,30.19,30.12,30.01,10,9,2,17,10,30,0.00,2,Snow,292
2013-11-24,30,24,19,12,4,-2,68,44,27,30.47,30.35,30.19,10,10,10,20,13,33,0.00,1,,303
2013-11-25,34,24,15,13,9,7,84,51,32,30.52,30.42,30.29,10,10,3,9,4,,0.00,1,Snow,217
2013-11-26,34,31,28,32,27,11,96,86,40,30.29,30.13,29.64,10,3,1,9,2,,1.47,8,Rain-Snow,18
2013-11-27,37,32,28,34,29,14,96,79,52,29.96,29.65,29.54,10,7,2,18,8,32,0.33,8,Rain-Snow,311
2013-11-28,30,28,26,21,18,14,78,66,54,30.46,30.28,29.99,10,9,2,10,7,22,0.00,7,Snow,286
2013-11-29,34,26,17,23,19,14,88,77,56,30.76,30.63,30.47,10,10,6,7,1,,0.00,3,,338
2013-11-30,35,24,14,21,16,11,89,71,42,30.76,30.61,30.38,10,9,7,12,2,,0.00,1,,193